CDT,Max TemperatureF,Mean TemperatureF,Min TemperatureF,Max Dew PointF,MeanDew PointF,Min DewpointF,Max Humidity, Mean Humidity, Min Humidity, Max Sea Level PressureIn, Mean Sea Level PressureIn, Min Sea Level PressureIn, Max VisibilityMiles, Mean VisibilityMiles, Min VisibilityMiles, Max Wind SpeedMPH, Mean Wind SpeedMPH, Max Gust SpeedMPH,PrecipitationIn, CloudCover, Events, WindDirDegrees
2012-10-1,,,,,,,,,,,,,,,,,,,,,,
2012-10-2,71,60,48,32,27,21,46,28,15,29.95,29.87,29.83,10,10,8,14,9,20,0.00,0,,182
2012-10-3,78,60,42,39,32,28,66,36,17,29.89,29.83,29.74,10,10,6,25,10,37,0.00,0,,163
2012-10-4,51,43,35,41,32,25,81,61,41,30.28,30.14,29.90,10,10,4,31,22,39,0.00,5,,307
2012-10-5,50,38,26,27,21,16,86,54,26,30.27,30.25,30.20,10,10,9,23,12,32,0.00,0,,304
2012-10-6,46,35,23,27,21,14,75,60,37,30.33,30.28,30.25,10,10,6,17,9,24,0.00,4,,328
2012-10-7,57,36,14,25,18,9,86,52,21,30.27,30.09,29.89,10,10,10,20,6,28,0.00,0,,213
2012-10-8,71,55,39,48,32,23,88,47,17,29.88,29.77,29.67,10,10,7,32,14,34,0.00,3,,222
2012-10-9,51,43,33,48,35,25,94,66,38,30.08,29.91,29.77,10,10,5,28,11,37,0.01,6,Rain,287
2012-10-10,60,42,24,30,24,19,86,52,23,30.17,30.05,29.91,10,10,9,20,10,26,0.00,0,,231
2012-10-11,51,38,26,34,27,18,69,52,41,30.39,30.12,29.89,10,10,6,23,14,28,0.00,0,,358
2012-10-12,57,38,19,43,20,10,80,49,17,30.40,30.24,29.96,10,10,9,26,10,30,0.00,3,,132
2012-10-13,69,58,48,57,51,43,100,82,56,29.95,29.74,29.65,10,7,2,17,11,22,0.00,6,,187
2012-10-14,62,50,37,50,37,28,100,63,32,29.95,29.84,29.69,10,9,4,28,13,36,0.00,1,,336
2012-10-15,69,48,28,41,34,25,93,58,28,29.97,29.88,29.70,10,10,7,18,5,23,0.00,0,,159
2012-10-16,75,62,50,48,44,41,87,57,29,29.69,29.50,29.36,10,10,10,16,11,22,0.00,0,,222
2012-10-17,64,55,46,50,40,32,88,61,45,29.47,29.36,29.21,10,10,6,38,19,51,0.00,7,,275
2012-10-18,46,44,41,46,41,34,100,92,62,29.48,29.36,29.28,10,5,2,30,25,43,0.49,7,Rain,300
2012-10-19,44,42,41,43,41,39,100,95,87,29.78,29.67,29.49,10,8,2,28,20,38,0.02,8,Rain,323
2012-10-20,59,49,39,46,43,39,100,86,55,29.81,29.76,29.70,10,9,0,16,7,22,0.00,4,Fog,170
2012-10-21,68,56,44,48,45,41,94,74,43,29.88,29.76,29.69,10,10,6,18,11,24,0.00,1,,118
2012-10-22,59,52,46,59,49,45,100,84,72,29.89,29.84,29.76,10,10,4,18,14,23,0.00,8,Rain,47
2012-10-23,60,54,46,61,56,46,100,97,88,29.79,29.72,29.68,9,3,0,15,8,16,0.00,8,Fog,176
2012-10-24,55,48,42,54,47,37,100,94,81,29.86,29.81,29.78,10,6,0,23,12,30,0.03,8,Rain,9
2012-10-25,42,37,32,39,32,28,100,88,75,30.28,30.00,29.74,10,7,0,29,21,43,0.30,8,Rain-Snow,325
2012-10-26,37,35,33,28,25,23,81,68,56,30.44,30.38,30.28,10,10,10,17,12,22,0.00,8,,299
2012-10-27,41,31,21,28,25,19,100,74,52,30.37,30.31,30.24,10,10,8,10,5,12,0.00,3,,182
2012-10-28,50,41,32,32,30,27,87,68,47,30.29,30.23,30.18,10,10,9,18,11,25,0.00,5,,156
2012-10-29,53,45,35,32,29,27,81,59,41,30.21,30.16,30.11,10,10,10,24,15,31,0.00,4,,147
2012-10-30,48,40,32,32,28,21,87,65,34,30.14,30.10,30.05,10,10,9,13,8,17,0.00,6,,97
2012-10-31,57,42,26,36,30,25,100,70,38,30.06,30.01,29.95,10,9,6,8,3,15,0.00,2,,231